Wind_Speed
32 33 33 32 33 33 34 36 37 37 37 39 39 39 38 38 39 40 42 43 43 42 43 44 44 43 44 44 43 43 43 43 42 42 41 40 39 38 38 37 37 36 36 36
31 31 30 31 31 31 33 34 34 36 36 37 37 38 37 37 37 39 40 41 41 42 43 43 42 43 43 43 43 43 43 43 42 42 42 42 40 40 39 38 37 37 38 37
29 27 28 29 30 31 31 31 31 33 34 34 36 37 36 35 36 36 38 39 40 40 41 41 41 42 42 42 42 43 42 42 42 43 43 42 41 41 40 39 39 38 39 39
26 25 26 26 26 27 29 29 30 30 31 32 33 35 32 32 34 35 35 36 37 39 39 40 40 40 40 40 41 42 42 43 42 41 41 43 42 41 41 41 40 40 40 39
24 23 24 24 24 25 26 27 29 29 30 30 31 34 31 30 31 33 32 33 34 36 37 38 38 38 38 38 39 40 41 42 42 41 41 42 42 42 42 42 41 40 40 41
22 23 23 23 23 23 23 24 26 27 28 29 29 32 31 30 29 29 30 30 31 34 35 35 35 35 36 37 38 40 40 42 42 42 42 41 42 42 42 42 43 43 41 41
20 21 22 22 23 23 23 24 24 25 26 28 27 30 29 28 27 27 28 29 29 32 33 34 34 34 35 36 37 38 39 42 42 42 42 41 41 41 41 42 43 44 43 42
20 20 20 20 21 23 23 24 24 25 26 26 25 27 27 26 26 26 27 28 28 30 31 32 33 33 34 36 37 37 39 41 41 41 42 42 42 42 41 42 43 43 44 44
20 20 20 21 21 22 23 24 24 26 26 26 26 25 25 24 24 24 25 26 27 29 31 31 32 32 33 35 37 37 38 39 40 41 42 43 42 42 42 42 43 44 44 44
20 20 20 20 21 21 22 23 24 25 25 25 24 24 23 22 21 22 23 24 26 28 30 30 31 32 33 34 35 37 38 38 39 41 42 43 43 42 43 44 44 45 44 44
19 19 18 19 19 20 21 21 23 26 26 26 25 25 23 24 23 22 23 24 25 26 29 30 31 32 33 34 35 37 38 39 39 40 41 42 42 41 42 43 44 44 44 44
18 18 18 18 18 19 20 21 21 23 25 26 26 24 22 23 24 24 25 24 23 25 28 29 30 32 33 34 35 36 37 38 38 39 40 41 41 42 42 42 42 43 43 43
19 20 20 19 18 19 20 21 22 22 23 25 26 23 21 23 24 25 25 24 24 25 27 29 30 32 34 35 35 36 37 37 37 37 38 39 38 39 39 40 41 41 42 42
19 19 20 20 20 19 20 21 21 22 23 23 24 24 23 23 25 25 26 26 26 27 28 30 32 33 34 35 36 35 35 35 36 35 36 37 37 38 38 39 39 40 41 42
20 20 20 20 19 20 20 21 21 22 22 23 23 22 23 23 26 26 26 26 27 28 29 30 32 34 33 34 34 34 35 35 35 35 35 36 35 37 38 38 38 40 40 41
20 21 21 20 20 21 20 20 21 21 22 22 22 21 21 23 25 26 27 28 28 28 28 29 31 33 34 34 34 34 34 35 35 35 35 36 36 36 36 37 38 39 39 39
19 19 20 20 19 20 19 18 20 20 21 21 21 21 21 22 24 26 27 27 27 28 28 29 30 32 33 32 33 33 34 34 34 35 35 36 36 36 37 37 37 37 37 37
19 19 20 21 20 19 18 19 19 20 20 21 21 20 21 23 23 24 25 26 27 27 28 29 30 31 31 31 32 32 33 34 34 34 35 35 35 36 36 37 37 37 36 37
19 19 19 20 20 21 19 18 19 19 19 20 20 21 22 23 23 24 25 26 26 27 27 28 29 30 30 30 30 31 32 33 33 33 34 34 35 35 36 36 36 36 36 36
19 19 20 20 20 20 18 17 17 19 21 21 21 22 23 23 23 23 24 25 26 26 26 28 28 28 29 29 30 31 31 32 32 33 34 34 34 34 35 35 35 35 35 35
19 19 19 19 19 19 18 18 17 19 20 21 22 22 23 24 24 24 24 25 25 26 26 27 28 28 28 29 30 30 31 31 31 32 32 33 33 34 34 35 35 35 35 35
20 20 19 20 20 19 18 19 19 20 20 21 21 22 22 23 23 24 24 25 25 25 26 27 27 27 28 28 29 31 31 31 32 33 33 34 34 34 34 35 36 36 36 36
21 21 21 21 21 20 20 21 21 21 22 22 23 23 23 23 23 23 24 25 25 25 26 26 28 28 28 29 30 30 31 31 32 33 33 34 35 35 35 35 36 36 36 36
23 23 22 22 21 22 22 22 23 23 23 24 24 24 24 25 25 25 25 26 26 25 25 26 27 27 28 29 30 31 31 31 32 33 34 34 35 34 34 35 35 35 35 35
23 24 24 24 23 24 24 24 24 24 24 24 25 25 25 26 26 26 26 26 26 26 26 26 26 27 27 28 30 31 32 33 34 34 34 35 35 34 33 33 32 32 33 33
22 23 25 25 24 25 24 25 25 25 25 25 26 26 26 27 26 25 25 25 26 27 26 27 27 27 27 28 29 30 31 33 33 34 34 34 34 33 32 32 31 31 31 31
Wind_Direction
272 268 265 264 264 262 262 261 262 261 259 259 258 258 259 258 256 253 252 252 252 248 247 247 245 243 243 242 242 241 241 242 242 242 244 245 248 248 247 249 250 250 251 252
272 268 266 266 263 261 262 262 261 261 260 260 260 259 260 260 257 255 253 253 253 248 246 246 245 243 241 241 240 241 241 241 241 241 243 245 247 248 248 249 251 252 253 253
274 270 266 264 262 261 260 261 261 262 263 262 264 262 260 259 258 255 254 253 253 249 245 244 245 243 240 239 239 239 239 239 239 241 243 244 246 247 248 249 251 253 254 254
275 270 267 266 264 263 261 259 260 263 264 263 264 267 261 261 258 255 253 252 251 248 246 245 243 241 239 238 239 238 238 238 239 241 243 244 246 247 248 250 251 253 254 256
276 270 268 268 266 264 262 260 261 263 264 265 264 268 264 261 259 256 255 252 251 248 246 243 241 240 238 238 238 238 238 238 238 241 243 244 246 247 248 249 251 252 253 256
277 272 269 268 266 266 266 262 261 263 265 267 266 268 266 262 262 261 257 253 252 249 245 242 240 239 239 237 236 237 237 237 238 241 244 245 246 247 249 250 251 252 255 258
277 273 270 268 266 265 264 262 263 265 264 266 267 266 264 263 262 263 260 255 254 251 246 244 240 239 238 237 237 237 239 238 239 242 244 246 247 248 250 251 251 252 255 257
277 275 272 268 267 266 262 262 262 265 266 266 267 265 265 264 264 263 259 254 253 250 248 246 242 239 238 237 238 240 240 240 242 244 245 248 248 248 249 251 251 252 255 258
281 278 275 272 269 266 265 265 265 266 269 272 268 265 267 266 261 257 256 254 252 249 247 246 242 239 238 239 240 243 243 244 244 245 247 248 250 249 250 252 253 254 256 258
283 281 277 273 268 267 267 266 264 264 269 271 269 266 268 267 261 260 257 254 252 248 248 247 244 241 240 241 242 244 246 247 247 246 248 250 252 252 253 254 254 255 257 257
282 280 278 274 271 270 268 267 265 266 266 269 272 269 270 269 265 263 257 254 250 248 247 248 245 244 244 244 245 247 247 249 249 250 252 252 253 253 253 255 255 257 259 260
279 279 280 277 273 267 267 266 264 265 264 267 273 272 268 267 267 266 261 256 251 248 247 248 248 246 246 246 248 250 250 251 252 253 255 255 255 255 255 254 256 259 261 262
280 278 280 279 275 269 268 267 262 264 266 266 268 270 268 269 268 265 260 256 252 251 249 247 249 249 248 249 250 252 253 255 256 256 256 257 256 257 256 257 259 261 262 264
276 279 280 283 280 273 268 265 263 264 267 267 268 269 268 269 267 264 262 259 255 253 252 251 250 251 251 252 253 255 255 256 256 257 256 257 259 259 259 258 260 262 264 265
276 279 280 281 278 273 267 262 262 263 266 269 269 270 268 268 266 266 265 258 255 255 254 253 252 254 254 254 255 256 256 257 257 258 258 258 258 259 261 261 262 263 265 266
277 279 280 281 276 273 270 267 265 265 268 270 270 270 269 268 265 265 264 261 258 256 255 254 254 255 255 254 254 256 256 256 257 258 259 258 259 261 261 262 263 264 265 266
277 278 279 280 279 276 271 269 269 270 272 274 274 273 272 270 266 264 263 262 260 258 256 256 256 257 256 256 256 257 256 256 256 256 257 258 260 261 262 263 265 266 265 267
277 277 279 280 280 280 280 274 273 273 274 276 277 274 272 271 268 265 263 262 261 260 259 259 259 258 259 259 258 259 258 258 259 259 259 260 261 263 263 263 264 266 266 267
274 277 281 283 283 282 282 280 276 273 273 275 277 276 272 271 271 270 266 264 263 262 262 263 262 261 261 261 261 263 262 262 262 262 262 263 264 265 264 264 264 265 267 268
275 277 280 283 284 284 284 281 276 276 277 278 278 277 275 274 275 274 271 268 264 263 264 264 265 264 263 264 265 266 265 265 264 263 263 264 265 265 265 264 265 266 267 269
274 277 280 282 283 282 284 282 280 278 278 279 280 278 276 275 276 275 272 271 268 266 266 266 268 266 265 266 265 267 268 267 265 264 265 264 263 265 267 266 267 268 270 271
273 275 276 278 279 282 283 283 283 282 280 280 282 281 279 278 277 276 274 273 271 270 270 270 267 266 266 267 268 269 270 268 266 265 265 265 265 266 268 270 269 269 270 271
273 273 274 274 277 279 278 280 282 282 281 280 280 280 280 279 278 278 277 274 273 272 271 272 270 267 266 266 268 269 269 269 268 267 267 267 267 267 268 270 270 269 269 271
275 273 273 274 276 278 279 280 282 283 284 282 280 277 276 278 279 278 276 274 273 274 274 275 273 268 267 267 267 268 269 269 269 268 268 268 268 268 270 271 270 269 269 270
278 273 272 273 276 278 279 279 280 281 282 282 280 278 277 279 281 279 277 273 271 273 274 274 274 271 269 268 267 267 269 270 270 269 268 268 268 268 269 270 269 269 270 271
278 273 272 274 275 276 278 277 277 278 279 280 280 279 280 282 283 280 276 273 272 272 272 273 274 272 271 271 271 270 270 269 269 269 268 269 269 268 269 268 267 267 269 271
Height
5658 5659 5659 5659 5659 5660 5660 5660 5662 5664 5665 5665 5666 5667 5670 5671 5672 5674 5676 5678 5681 5684 5688 5692 5696 5700 5705 5709 5714 5719 5724 5728 5732 5735 5739 5742 5745 5747 5749 5752 5754 5756 5759 5761
5650 5650 5651 5650 5650 5650 5651 5652 5654 5655 5655 5655 5656 5657 5660 5661 5662 5664 5666 5668 5670 5674 5677 5681 5685 5689 5694 5698 5703 5709 5714 5718 5722 5726 5730 5734 5736 5739 5742 5744 5747 5749 5751 5753
5642 5644 5643 5642 5642 5642 5643 5644 5646 5647 5647 5647 5647 5648 5651 5652 5652 5654 5656 5658 5661 5663 5667 5671 5675 5678 5683 5688 5694 5699 5704 5708 5713 5717 5721 5724 5727 5730 5733 5736 5739 5741 5743 5745
5636 5636 5635 5635 5635 5635 5636 5638 5639 5639 5639 5638 5639 5637 5642 5643 5644 5645 5647 5649 5652 5655 5658 5662 5665 5669 5674 5679 5684 5689 5695 5700 5704 5708 5711 5715 5718 5722 5725 5728 5731 5733 5735 5737
5630 5630 5629 5629 5630 5629 5630 5632 5632 5632 5631 5631 5631 5630 5634 5636 5636 5637 5639 5641 5643 5647 5650 5653 5657 5661 5665 5669 5675 5681 5686 5690 5695 5699 5703 5707 5710 5713 5716 5719 5722 5724 5726 5728
5625 5624 5623 5624 5624 5624 5624 5625 5626 5625 5624 5624 5625 5624 5626 5628 5630 5631 5632 5634 5636 5639 5642 5646 5650 5654 5657 5662 5667 5672 5677 5681 5685 5690 5694 5698 5701 5704 5707 5710 5712 5715 5718 5720
5621 5620 5619 5618 5619 5619 5619 5620 5620 5618 5617 5618 5621 5618 5620 5623 5624 5625 5626 5628 5630 5633 5636 5639 5643 5647 5651 5655 5660 5665 5669 5673 5677 5681 5685 5689 5692 5695 5698 5700 5703 5706 5709 5711
5615 5615 5614 5614 5613 5614 5614 5615 5615 5615 5614 5614 5615 5614 5617 5619 5619 5620 5621 5622 5624 5627 5631 5634 5637 5641 5646 5650 5653 5657 5661 5665 5669 5672 5676 5679 5683 5686 5689 5691 5694 5697 5699 5701
5610 5611 5611 5610 5609 5609 5609 5609 5611 5611 5609 5609 5610 5611 5613 5614 5614 5615 5616 5617 5619 5622 5624 5628 5631 5635 5639 5643 5647 5650 5653 5657 5660 5664 5667 5670 5673 5676 5679 5682 5685 5687 5689 5692
5606 5606 5606 5605 5605 5604 5605 5605 5605 5605 5604 5604 5606 5607 5608 5609 5610 5610 5611 5612 5614 5617 5619 5623 5626 5629 5633 5636 5640 5643 5646 5649 5652 5656 5658 5661 5664 5667 5670 5672 5675 5677 5679 5681
5602 5601 5601 5601 5600 5600 5601 5601 5600 5600 5600 5600 5601 5605 5604 5604 5605 5606 5606 5608 5610 5612 5614 5617 5620 5623 5626 5629 5632 5635 5638 5641 5644 5646 5649 5651 5654 5656 5659 5662 5665 5667 5668 5670
5598 5597 5596 5597 5596 5595 5595 5595 5596 5596 5596 5596 5596 5600 5599 5600 5600 5600 5601 5603 5605 5607 5609 5612 5614 5616 5619 5622 5625 5628 5630 5632 5635 5637 5639 5642 5644 5647 5649 5652 5655 5656 5658 5660
5593 5593 5592 5592 5593 5592 5590 5590 5591 5591 5591 5590 5590 5595 5594 5594 5594 5595 5596 5598 5599 5601 5603 5605 5607 5610 5612 5614 5617 5620 5622 5624 5626 5628 5630 5632 5634 5636 5639 5642 5644 5646 5647 5649
5589 5588 5589 5588 5587 5586 5586 5586 5586 5585 5585 5585 5586 5588 5589 5588 5588 5589 5590 5592 5593 5595 5597 5599 5601 5602 5604 5607 5609 5611 5613 5615 5617 5619 5621 5623 5624 5627 5629 5631 5633 5635 5637 5638
5584 5584 5583 5583 5582 5581 5581 5581 5581 5581 5581 5581 5582 5581 5583 5583 5582 5583 5584 5585 5587 5588 5590 5592 5594 5595 5597 5599 5601 5603 5604 5606 5608 5609 5611 5613 5615 5617 5619 5621 5622 5624 5626 5627
5579 5579 5578 5578 5577 5576 5576 5577 5576 5576 5576 5576 5575 5576 5577 5576 5577 5577 5578 5579 5580 5582 5583 5584 5586 5587 5589 5591 5593 5594 5596 5597 5599 5600 5602 5604 5605 5607 5609 5610 5613 5614 5615 5616
5574 5574 5573 5573 5573 5571 5572 5573 5572 5571 5571 5571 5570 5572 5571 5570 5570 5570 5571 5572 5573 5575 5576 5577 5578 5579 5581 5582 5584 5585 5587 5588 5590 5591 5593 5595 5596 5598 5599 5601 5603 5604 5605 5606
5570 5569 5568 5568 5568 5567 5571 5568 5567 5566 5566 5565 5565 5565 5564 5564 5564 5565 5565 5565 5566 5567 5568 5569 5570 5571 5572 5573 5575 5576 5578 5579 5581 5582 5584 5586 5587 5588 5590 5591 5593 5594 5595 5596
5565 5564 5563 5563 5562 5562 5564 5563 5562 5561 5561 5561 5560 5560 5559 5559 5559 5560 5559 5559 5559 5560 5561 5562 5562 5563 5564 5566 5567 5568 5569 5570 5572 5573 5574 5576 5578 5579 5580 5581 5582 5584 5585 5586
5560 5560 5559 5558 5557 5557 5560 5558 5556 5557 5556 5556 5555 5554 5554 5553 5553 5555 5553 5553 5553 5553 5554 5554 5555 5556 5557 5558 5558 5560 5561 5561 5562 5564 5565 5566 5568 5569 5570 5571 5572 5573 5574 5575
5556 5555 5554 5553 5552 5552 5554 5552 5552 5553 5552 5551 5549 5548 5548 5547 5547 5547 5546 5546 5546 5546 5547 5547 5547 5548 5549 5549 5551 5551 5552 5553 5554 5555 5556 5557 5558 5559 5560 5561 5562 5563 5564 5565
5550 5550 5550 5549 5548 5551 5548 5547 5547 5547 5545 5544 5543 5542 5541 5541 5540 5540 5540 5539 5539 5539 5539 5539 5540 5540 5541 5542 5542 5543 5544 5545 5545 5546 5547 5548 5549 5549 5550 5551 5552 5553 5554 5554
5544 5545 5544 5545 5546 5544 5542 5541 5540 5540 5539 5538 5537 5537 5535 5534 5534 5534 5533 5533 5532 5532 5532 5532 5532 5532 5533 5533 5534 5535 5535 5536 5536 5537 5537 5538 5539 5539 5540 5541 5542 5542 5543 5543
5539 5538 5538 5538 5538 5537 5536 5535 5534 5534 5533 5532 5530 5530 5529 5528 5527 5527 5526 5525 5525 5524 5524 5524 5524 5524 5524 5524 5525 5526 5526 5526 5527 5528 5528 5528 5529 5529 5530 5530 5531 5531 5532 5533
5532 5531 5531 5531 5531 5530 5530 5528 5528 5527 5526 5525 5524 5523 5522 5521 5520 5520 5519 5518 5518 5517 5517 5516 5516 5516 5516 5515 5516 5516 5516 5516 5517 5518 5518 5518 5519 5519 5520 5520 5520 5521 5522 5522
5526 5524 5524 5524 5524 5523 5523 5521 5520 5519 5519 5517 5516 5516 5515 5514 5513 5512 5511 5511 5510 5510 5509 5509 5508 5508 5507 5507 5507 5506 5506 5507 5507 5507 5508 5508 5509 5509 5510 5510 5511 5511 5512 5512